Reflectivity
-20 -20 -20 -20 -20 -20 -20 -20 -20 -20 -20 -20 -20 -20 -20 -20 -20 -20 -20 -20 -20 -20 -20 -20 -20 -20 -20 11 -20 -20 -20 -20 -20 -20 -20 -20 -9 -17 -20 -20 -20 -20 -20 -20 18 -14 -20 -20 -20
-20 -20 -20 -20 -20 -20 -20 -20 -20 -20 -20 -20 -20 -20 -20 -20 -20 -20 -20 -20 -20 -20 -20 -20 -20 -20 -20 -18 -3 -20 -20 -20 -20 -20 -14 -18 -3 -11 -20 -15 -20 -20 -20 -20 -20 9 -20 -20 -20
-20 -20 -20 -20 -20 -20 -20 -20 -20 -20 -20 -20 -20 -20 -20 -20 -20 -20 -20 -20 -20 -20 -20 -20 -20 -20 -20 -20 -12 -20 -20 -20 -20 -20 -20 -20 2 -20 -20 16 -13 -20 -20 -20 -20 28 -20 -20 -20
-20 -20 -20 -20 -20 -20 -20 -20 -20 -20 -20 -20 -20 -20 -20 -20 -20 -20 -20 -20 -20 -20 -20 -20 -19 -20 -9 -20 -20 -20 -20 -20 -20 -20 -19 -0 -20 -20 -20 -20 -19 -20 -20 -20 -20 -16 19 -20 -20
-20 -20 -20 -20 -20 -20 -20 -20 -20 -20 -20 -20 -20 -20 -20 -20 -20 -20 -20 -20 -20 -20 -20 -20 -20 -20 20 -9 18 -20 -20 -20 -20 -20 -20 -20 -20 -20 -20 -20 -20 -20 -20 -20 -20 -20 -20 -20 -20
-20 -20 -20 -20 -20 -20 -20 -20 -20 -20 -20 -20 -20 -20 -20 -20 -20 -20 -20 -20 -20 -20 -20 -20 -20 -20 -20 2 -3 4 6 6 -20 -20 -20 -3 -5 -20 -20 -20 -20 -20 -20 -20 -20 -10 -20 -20 -20
-20 -20 -20 -20 -20 -20 -20 -20 -20 -20 -20 -20 -20 -20 -20 -20 -20 -20 -20 -20 -20 -20 -20 -20 -20 -20 -20 -20 -20 24 30 31 30 31 -19 21 -20 -9 20 -20 -20 -20 -20 -20 -20 -20 12 -7 -20
-20 -20 -20 -20 -20 -20 -20 -20 -20 -20 -20 -20 -20 -20 -20 -20 -20 -20 -20 -20 -20 -20 -20 -20 -20 -20 -20 -20 -20 -20 26 32 34 18 28 -10 3 -3 -19 31 -20 -20 -20 -20 -20 -20 -20 11 7
-20 -20 -20 -20 -20 -20 -20 -20 -20 -20 -20 -20 -20 -20 -20 -20 -20 -20 -20 -20 -20 -20 -20 -20 -20 -20 -20 -20 -20 -20 -20 14 29 32 27 4 14 -3 5 1 20 10 3 -19 -20 -20 -20 -20 -20
-20 -20 -20 -20 -20 -20 -20 -20 -20 -20 -20 -20 -20 -20 -20 -20 -20 -20 -20 -20 -20 -20 -20 -20 -20 -20 -20 -20 -20 -20 -20 -20 20 28 27 12 28 27 -20 34 34 8 3 11 17 -20 -20 -20 -20
-20 -20 -20 -20 -20 -20 -20 -20 -20 -20 -20 -20 -20 -20 -20 -20 -20 -20 -20 -20 -20 -20 -20 -20 -20 -20 -20 -20 -20 -20 -20 -20 -20 -20 -20 6 -11 -18 -20 -20 -20 -10 -20 12 0 -12 -14 -20 -20
-20 -20 -20 -20 -20 -20 -20 -20 -20 -20 -20 -20 -20 -20 -20 -20 -20 -20 -20 -20 -20 -20 -20 -20 -20 -20 -20 -20 -20 -20 -20 -20 -5 -20 -20 -20 -20 -20 -20 -20 -20 -20 15 1 22 18 20 14 -15
-20 -20 -20 -20 -20 -20 -20 -20 -20 -20 -20 -20 -20 -20 -20 -20 -20 -20 -20 -20 -20 -20 -20 -20 -20 -20 2 -20 21 -20 -4 16 -20 -20 -20 -20 -20 -20 -20 -20 -20 -20 -20 -20 -20 -20 6 26 13
-20 -20 -20 -20 -20 -20 -20 -20 -20 -20 -20 -20 -20 -20 -20 -20 -20 -20 -20 -20 -20 -20 -20 -20 -20 -20 -20 -20 -3 17 -20 -9 19 -20 -20 -20 -20 -20 -20 -20 -20 -20 -20 -20 -20 -20 -20 -18 -0
-20 -20 -20 -20 -20 -20 -20 -20 -20 -20 -20 -20 -20 -20 -20 -20 -20 -20 -20 -20 -20 -20 -20 -20 -20 -20 -20 -16 -20 14 15 -20 -20 17 -20 -20 -20 -20 -20 -20 -20 -20 -20 -20 -20 -20 -20 -20 -20
-20 -20 -20 -20 -20 -20 -20 -20 -20 -20 -20 -20 -20 -20 -20 -20 -20 -20 -20 -20 -20 -20 -20 -20 -20 -20 -20 -20 -20 -20 2 -20 -20 13 28 -20 -20 -20 -20 -20 -20 -20 -20 -20 -20 -20 -20 -20 -20
-20 -20 -20 -20 -20 -20 -20 -20 -20 -20 -20 -20 -20 -20 -20 -20 -20 -20 -20 -20 -20 -20 -20 -20 -20 -20 -20 -20 -20 -20 9 -18 -20 -20 13 28 -20 -20 -20 -20 -20 -20 -20 -20 -20 -20 -20 -20 -20
-20 -20 -20 -20 -20 -20 -20 -20 -20 -20 -20 -20 -20 -20 -20 -20 -20 -20 -20 -20 -20 -20 -20 -20 -20 -20 -20 -20 -20 -20 -20 -20 -20 -20 -20 -18 -20 -20 -20 -20 -20 -20 -20 -20 -20 -20 -20 -20 -20
-20 -20 -20 -20 -20 -20 -20 -20 -20 -20 -20 -20 -20 -20 -20 -20 -20 -20 -20 -20 -20 -20 -20 -20 -20 -20 -20 -20 -20 -20 -20 -20 -20 -20 -20 -20 -20 -20 -20 -20 -20 -20 -20 -20 -20 -20 -20 -20 -20
-20 -20 -20 -20 -20 -20 -20 -20 -20 -20 -20 -20 -20 -20 -20 -20 -20 -20 -20 -20 -20 -20 -20 -20 -20 -20 -20 -20 -20 -20 -20 -20 -20 -20 -20 -20 -20 -20 -20 -20 -20 -20 -20 -20 -20 -20 -20 -20 -20
-20 -20 -20 -20 -20 -20 -20 -20 -20 -20 -20 -20 -20 -20 -20 -20 -20 -20 -20 -20 -20 -20 -20 -20 -20 -20 -20 -20 -20 -20 -20 -20 -20 -20 -20 -20 -20 -20 -20 -20 -20 -20 -20 -20 -20 -20 -19 -15 -20
-20 -20 -20 -20 -20 -20 -20 -20 -20 -20 -20 -20 -20 -20 -20 -20 -20 -20 -20 -20 -20 -20 -20 -20 -20 -20 -20 -20 -20 -20 -20 -20 -20 -20 -20 -20 -20 -20 -20 -20 -20 -20 -20 -20 -20 -20 -6 3 -3
-20 -20 -20 -20 -20 -20 -20 -20 -20 -20 -20 -20 -20 -20 -20 -20 -20 -20 -20 -20 -20 -20 -20 -20 -20 -20 -20 -20 -20 -20 -20 -20 -20 -20 -20 -20 -20 -20 -20 -20 -20 -20 -20 -20 -3 10 -19 -20 -10
-20 -20 -20 -20 -20 -20 -20 -20 -20 -20 -20 -20 -20 -20 -20 -20 -20 -20 -20 -20 -20 -20 -20 -20 -20 -20 -20 -20 -20 -20 -20 -20 -20 -20 -20 -20 -20 -20 -20 -20 -20 -20 -20 -20 -8 -5 -1 4 9
-20 -20 -20 -20 -20 -20 -20 -20 -20 -20 -20 -20 -20 -20 -20 -20 -20 -20 -20 -20 -20 -20 -20 -20 -20 -20 -20 -20 -20 -20 -20 -20 -20 -20 -20 -20 -20 -20 -20 -20 -20 -20 -20 -20 -20 -20 -20 -7 -18
-20 -20 -20 -20 -20 -20 -20 -20 -20 -20 -20 -20 -20 -20 -20 -20 -20 -20 -20 -20 -20 -20 -20 -20 -20 -20 -20 -20 -20 -20 -20 -20 -20 -20 -20 -20 -20 -20 -20 -20 -20 -20 -20 -20 -20 -20 -20 -12 -9
-20 -20 -20 -20 -20 -20 -20 -20 -20 -20 -20 -20 -20 -20 -20 -20 -20 -20 -20 -20 -20 -20 -20 -20 -20 -20 -20 -20 -20 -20 -20 -20 -20 -20 -20 -20 -20 -20 -20 -20 -20 -20 -20 -20 -20 -20 -20 -20 -14
-20 -20 -20 -20 -20 -20 -20 -20 -20 -20 -20 -20 -20 -20 -20 -20 -20 -20 -20 -20 -20 -20 -20 -20 -20 -20 -20 -20 -20 -20 -20 -20 -20 -20 -20 -20 -20 -20 -20 -20 -20 -20 -20 -20 -20 -20 -20 -16 -19
-20 -20 -20 -20 -20 -20 -20 -20 -20 -20 -20 -20 -20 -20 -20 -20 -20 -20 -20 -20 -20 -20 -20 -20 -20 -20 -20 -20 -20 -20 -20 -20 -20 -20 -20 -20 -20 -20 -20 -20 -20 -20 -20 -20 -20 -20 -20 1 -17
-20 -20 -20 -20 -20 -20 -20 -20 -20 -20 -20 -20 -20 -20 -20 -20 -20 -20 -20 -20 -20 -20 -20 -20 -20 -20 -20 -20 -20 -20 -20 -20 -20 -20 -20 -20 -20 -20 -20 -20 -20 -20 -20 -20 -20 -20 -20 -20 -20
Wind_Speed
7 6 2 6 7 6 2 6 1 3 2 1 1 1 3 2 2 4 5 4 4 6 5 8 11 11 10 11 11 10 12 11 11 11 11 11 11 11 10 9 9 7 5 7 5 8 9 8 9
4 3 6 3 7 3 6 4 4 4 1 6 1 2 4 3 1 3 3 3 4 5 4 3 9 10 10 9 9 9 9 11 11 12 11 11 10 9 12 11 10 8 6 3 1 11 10 9 9
3 5 5 6 4 6 5 4 4 3 5 6 4 2 1 4 2 2 3 1 5 4 3 4 7 9 10 9 7 7 8 9 9 9 10 11 11 8 12 12 11 8 6 4 2 8 11 11 10
4 6 5 5 5 3 1 2 3 5 5 7 5 3 4 2 5 4 4 5 5 3 1 4 9 9 11 11 9 8 7 6 7 8 9 11 10 10 10 10 8 7 6 6 5 7 12 11 10
5 4 4 3 4 4 2 2 3 4 3 5 6 4 7 6 6 5 4 3 3 2 3 3 7 10 11 12 12 11 11 9 9 9 10 9 11 12 11 10 10 9 8 8 6 6 14 12 11
5 4 5 1 3 3 3 5 3 3 2 6 5 5 4 6 5 3 0 5 4 5 4 4 5 6 5 8 13 14 14 13 13 12 10 10 10 11 11 11 11 11 10 9 9 7 12 12 11
7 5 2 2 3 1 4 9 3 2 4 2 3 4 4 5 9 7 6 3 5 5 4 4 4 4 3 3 5 7 10 12 15 13 11 10 11 12 11 11 11 11 11 11 9 9 10 12 11
5 5 2 2 1 2 4 6 1 3 5 7 1 3 5 3 9 8 4 5 5 5 5 6 6 4 2 2 2 1 5 9 12 12 12 8 7 7 10 10 10 11 10 10 10 10 9 10 11
3 6 0 2 2 3 2 5 3 2 3 4 4 2 5 8 8 7 6 5 2 4 6 5 6 5 4 3 3 2 4 5 6 8 10 7 4 4 6 7 9 11 11 11 10 11 11 9 9
6 4 6 3 2 3 3 1 3 5 5 4 4 6 6 7 6 6 7 8 7 7 7 6 6 7 5 3 2 1 1 3 4 4 5 4 5 4 4 5 9 7 9 11 11 11 10 8 4
2 5 2 3 2 1 3 3 3 2 5 7 6 9 9 7 9 8 8 8 10 8 5 6 7 6 6 4 2 1 0 0 1 1 2 3 1 3 4 3 3 3 4 3 6 6 5 6 4
0 3 2 3 1 1 3 4 4 5 8 3 6 7 6 9 9 8 9 8 8 9 10 10 6 6 4 2 1 2 0 1 1 2 1 2 2 3 3 2 4 3 2 4 3 3 4 6 6
1 2 2 5 8 6 2 7 6 8 11 7 7 8 9 8 9 8 8 8 8 8 10 9 2 6 5 5 3 3 3 1 2 1 2 2 2 2 2 2 2 3 3 3 3 3 3 4 7
1 3 6 5 5 4 3 3 3 4 2 5 8 9 7 7 7 7 8 9 9 8 9 4 4 5 4 6 5 4 2 3 3 2 2 4 2 1 1 2 2 2 2 3 3 3 3 4 3
2 6 6 0 4 3 3 0 6 3 5 7 9 8 7 7 7 6 7 7 7 6 7 6 4 4 2 3 4 5 4 2 3 2 3 3 2 3 3 2 2 2 2 4 3 3 3 3 4
5 4 5 2 6 2 2 8 4 3 5 13 10 7 7 8 6 6 6 6 7 6 8 7 1 6 6 8 2 4 2 3 1 2 2 4 4 2 3 3 3 2 2 1 2 3 3 3 3
7 2 2 9 3 4 5 8 7 3 8 10 8 7 7 8 7 6 7 6 6 6 7 7 5 6 5 3 2 2 3 1 1 1 2 4 4 2 1 1 2 3 3 2 2 1 1 3 4
3 4 4 6 5 4 5 13 10 5 7 9 7 6 7 8 6 7 8 6 6 6 6 6 4 4 4 2 4 1 0 1 1 1 1 1 2 3 2 2 3 3 3 3 2 2 2 3 4
1 3 4 5 5 7 5 13 17 10 4 5 2 5 7 8 7 6 7 7 6 5 7 6 5 5 4 4 1 1 2 2 2 2 3 3 3 3 2 1 2 3 3 3 3 2 2 2 2
4 3 4 5 2 3 6 16 9 3 1 3 4 6 7 7 8 7 7 6 6 5 5 6 4 4 3 1 1 1 0 0 1 2 4 4 2 2 3 2 3 4 3 5 4 3 2 2 1
3 3 2 3 8 2 7 6 5 3 3 3 4 3 4 6 7 7 7 6 6 6 4 3 4 4 2 1 1 2 1 1 2 2 2 2 3 3 2 3 3 3 3 3 4 4 5 5 3
4 2 3 5 6 4 5 6 4 3 2 3 6 6 7 7 6 5 6 7 6 6 4 4 4 3 2 1 1 1 2 3 2 2 2 4 5 5 5 4 4 4 3 4 4 5 4 4 6
3 2 3 1 2 4 1 3 8 3 2 2 5 7 8 8 7 8 8 7 6 6 5 4 4 4 3 3 3 2 4 4 3 3 5 5 5 5 6 4 4 4 3 4 4 5 6 5 6
5 3 4 4 2 2 1 4 6 3 3 0 2 6 7 8 8 8 7 7 7 7 6 6 6 6 5 4 5 6 7 6 4 4 4 4 3 4 5 6 5 4 4 4 4 4 5 6 7
7 6 5 7 5 5 3 1 9 3 2 2 2 5 7 6 7 7 8 8 8 8 8 6 5 8 6 6 6 6 7 7 7 7 4 5 4 3 6 5 5 3 4 5 5 6 6 6 6
3 3 6 5 3 6 4 7 6 3 2 3 4 2 4 7 6 6 7 6 6 7 8 8 8 8 8 7 8 6 7 4 5 6 5 4 5 5 5 5 6 6 6 4 5 6 7 7 6
1 1 3 2 1 2 4 7 6 2 3 3 5 5 6 6 6 6 7 7 7 7 7 7 7 7 7 7 7 7 6 6 6 8 6 5 5 5 6 7 7 7 6 6 5 5 6 8 7
1 4 3 3 1 5 6 6 6 6 6 5 4 5 7 4 4 6 7 7 6 6 6 7 7 6 6 7 5 5 7 7 7 6 8 7 7 6 7 7 7 7 6 6 5 6 8 8 7
1 0 3 2 4 4 3 8 7 8 8 9 4 4 7 8 3 1 6 6 5 4 6 7 7 7 8 8 7 7 6 6 6 6 7 8 8 8 8 8 8 8 8 7 6 7 9 11 11
1 4 6 5 5 4 3 9 1 6 7 7 3 6 7 7 4 2 5 6 7 7 7 7 6 6 6 7 6 9 9 8 8 6 7 7 8 8 10 9 9 8 9 8 8 8 7 11 11
Wind_Direction
339 320 54 39 55 63 278 255 324 278 297 241 27 335 273 67 130 228 287 334 164 155 173 176 181 180 187 189 180 177 175 174 175 179 177 177 180 173 173 169 166 163 161 190 171 161 152 148 143
334 355 43 73 86 80 259 252 226 247 331 336 336 345 14 352 23 312 360 360 114 141 163 185 187 189 195 198 183 184 194 182 183 183 186 185 192 189 187 181 179 174 171 182 269 166 157 156 151
4 42 80 93 117 185 211 230 230 320 3 4 9 68 15 327 333 239 260 116 123 132 153 181 196 193 202 217 202 195 190 186 178 186 187 184 176 177 198 189 176 181 186 202 234 189 161 161 163
44 14 34 91 224 264 215 303 273 3 11 34 343 10 340 346 323 336 68 74 88 49 40 202 208 209 214 216 214 211 207 201 199 192 192 193 167 178 174 175 180 175 184 206 230 196 171 167 171
38 55 53 55 276 300 24 14 18 20 19 344 341 322 315 328 324 61 79 129 160 219 262 251 253 243 230 225 224 217 210 210 200 206 219 226 194 192 190 183 180 189 201 200 205 209 183 173 178
43 89 57 239 273 334 28 358 7 28 5 321 15 338 277 298 348 4 286 197 195 204 234 260 278 288 315 278 239 230 225 212 214 218 227 226 211 200 196 188 189 192 195 209 208 195 189 181 188
99 77 183 198 280 347 342 327 52 333 331 308 292 319 291 1 328 343 323 271 204 215 222 239 251 259 272 296 318 308 300 291 240 230 226 226 215 208 206 198 196 202 201 198 212 219 204 189 196
96 88 103 320 291 292 311 342 111 49 279 314 278 273 291 323 334 332 347 338 315 304 294 289 289 283 269 262 239 286 315 326 326 331 304 292 280 237 223 210 203 204 206 208 202 210 222 210 202
97 59 327 246 206 265 314 12 299 308 271 340 280 278 272 307 321 326 333 329 280 284 265 263 268 270 262 242 251 205 191 247 304 319 314 317 295 280 267 236 204 208 206 208 211 211 213 222 218
78 100 221 208 202 243 296 189 311 344 335 288 299 298 291 309 331 312 295 290 289 282 254 238 232 242 236 247 190 215 216 187 212 217 283 316 290 322 314 261 260 262 235 223 212 213 212 212 210
129 183 210 260 206 174 261 271 209 225 294 236 273 298 310 310 321 311 287 258 263 273 287 247 246 235 226 225 179 152 132 26 19 119 168 246 40 19 14 353 354 325 299 260 233 221 208 197 195
324 237 210 278 119 306 265 308 292 202 236 251 276 276 279 312 318 312 306 296 286 276 263 278 217 237 239 332 216 151 123 41 46 316 35 70 48 20 22 23 358 353 328 304 276 251 215 205 206
165 290 272 284 291 264 285 250 240 263 267 295 297 319 326 336 325 313 294 282 285 278 277 270 259 189 175 142 281 270 186 247 7 25 326 59 46 28 358 355 355 340 346 340 317 310 290 245 219
329 289 285 309 295 286 282 278 114 283 311 321 340 330 337 335 316 308 325 316 325 309 289 310 246 313 157 151 158 264 204 185 211 302 336 358 4 350 21 339 336 325 326 323 331 322 296 286 258
348 346 334 193 319 303 302 124 219 261 334 337 329 334 337 331 325 327 316 320 300 320 313 316 217 128 104 317 298 180 227 181 195 198 338 327 332 327 329 311 308 289 309 321 333 325 320 298 290
36 48 19 297 341 286 38 277 262 3 1 328 327 331 335 323 311 313 313 340 341 4 352 346 339 160 205 197 175 276 165 159 157 13 359 328 315 313 314 313 312 317 320 300 323 316 309 282 262
10 330 344 316 38 346 62 275 274 313 338 302 315 319 326 324 330 331 320 315 335 345 342 331 311 242 237 140 142 335 11 43 49 82 341 322 290 358 40 334 327 345 345 342 324 299 257 299 297
314 335 292 254 305 6 295 269 284 282 244 278 303 315 333 335 308 320 339 332 344 354 349 350 359 333 41 68 66 318 26 320 9 328 207 156 29 36 43 346 324 328 325 317 317 292 293 249 276
176 239 260 265 313 344 289 291 294 297 271 283 231 352 345 328 307 318 331 336 355 5 357 10 31 7 38 29 28 315 324 322 349 355 349 346 339 339 3 321 317 316 301 277 284 283 282 299 289
230 270 297 274 268 334 330 301 297 326 60 116 47 354 330 327 328 328 337 1 351 312 331 344 3 2 355 13 200 137 19 338 278 322 314 303 295 289 301 297 305 314 312 298 280 259 279 247 216
240 218 220 247 326 261 299 304 352 12 69 54 21 316 309 303 324 324 333 334 333 322 289 301 304 300 284 263 4 341 351 29 355 328 309 306 272 274 269 291 281 291 297 289 296 277 236 271 238
341 193 30 330 17 286 21 279 312 342 36 17 343 336 322 328 330 323 330 333 323 309 284 286 298 285 275 285 290 271 259 287 243 251 268 288 282 275 262 281 275 241 254 268 263 275 269 268 270
246 20 278 220 184 16 351 72 271 341 287 329 330 333 337 326 324 326 328 322 319 329 326 306 294 295 287 272 238 237 268 255 275 279 281 281 280 266 269 269 280 280 277 265 259 265 276 265 266
315 21 59 57 95 17 260 138 280 207 203 133 350 352 338 340 346 346 335 331 328 333 334 325 322 302 294 275 265 248 248 257 273 269 273 266 265 270 263 262 260 265 274 286 284 262 272 281 264
28 34 339 352 6 224 340 356 245 269 185 118 16 352 339 353 2 356 356 357 351 350 341 332 338 307 318 307 292 274 259 261 253 260 253 274 274 250 248 243 250 250 255 291 291 293 282 271 273
41 117 148 246 263 280 312 240 254 224 139 82 79 8 359 2 2 8 4 8 12 7 6 4 353 333 334 325 309 303 287 272 265 259 255 254 244 247 249 239 235 240 241 237 277 280 284 279 268
134 81 160 113 268 20 252 288 305 167 139 92 68 37 343 335 359 14 9 15 13 18 15 13 11 358 352 337 326 316 303 292 276 272 262 255 256 256 247 233 233 234 235 235 248 275 281 273 275
108 154 61 2 296 262 283 276 237 219 191 160 88 34 344 324 29 12 13 12 5 0 354 12 14 357 333 335 332 320 305 301 288 284 277 269 267 253 251 247 236 232 230 230 225 259 264 277 276
102 164 69 134 175 205 275 260 212 205 196 167 138 324 298 308 176 32 359 353 347 355 5 353 1 356 347 344 331 331 320 303 288 275 278 273 274 264 253 242 236 232 230 227 221 232 260 272 277
194 203 161 136 257 245 205 265 304 245 185 148 348 322 326 299 147 31 345 340 353 352 350 347 336 338 328 323 330 328 326 324 319 300 278 266 261 259 251 246 242 237 232 225 222 231 246 269 272